Location: West Cummington
(42.4920°N, 72.9680°W)
Time: 03:13:35
(UTC-04:00)

Cosmos 1703 Rocket - Visible Passes

Search period start: 30 May 2017 00:00
Search period end: 09 June 2017 00:00
Orbit: 605 x 635 km, 82.5° (Epoch: 29 May)

Date Brightness Start Highest point End Pass type
(mag) Time Alt. Az. Time Alt. Az. Time Alt. Az.
30 May 6.4 03:18:06 10° NE 03:20:39 15° ENE 03:23:11 10° ESE visible
31 May 5.7 03:34:45 10° NNE 03:38:29 26° ENE 03:42:12 10° SE visible
01 Jun 4.6 03:51:56 10° N 03:56:12 48° ENE 04:00:29 10° SSE visible
02 Jun 3.6 04:09:24 10° N 04:13:50 89° W 04:18:16 10° S visible
03 Jun 6.3 02:50:27 10° NNE 02:53:12 16° ENE 02:55:59 10° ESE visible
03 Jun 3.9 04:27:08 10° NNW 04:31:22 46° W 04:35:36 10° SSW visible
04 Jun 5.5 03:07:12 10° NNE 03:11:02 28° ENE 03:14:53 10° SE visible
05 Jun 4.3 03:24:26 10° N 03:28:45 52° E 03:33:06 10° SSE visible
06 Jun 3.5 03:41:56 10° N 03:46:22 83° W 03:50:49 10° S visible
07 Jun 6.1 02:22:49 10° NNE 02:25:48 17° ENE 02:28:46 10° ESE visible
07 Jun 4.0 03:59:41 10° NNW 04:03:53 43° W 04:07:57 11° SSW visible
08 Jun 5.2 02:39:39 10° NNE 02:43:36 30° ENE 02:47:33 10° SE visible
08 Jun 4.9 04:17:47 10° NW 04:21:19 24° W 04:24:52 10° SW visible
